Other Public Products
Issued by NWS Charleston, SC

Current Version | Previous Version | Graphics & Text | Print | Product List | Glossary On
Versions: 1 2 3 4 5 6 7 8 9 10 11 12 13 14 15 16 17 18 19 20 21 22 23 24 25 26 27 28 29 30 31 32 33 34 35 36 37 38 39 40 41 42 43 44 45 46 47 48 49 50
000
FPUS82 KCHS 181827
OPUCHS

TEST...KCHS/KSAV Gateway Observations...TEST
National Weather Service Charleston SC
100 PM EST SUN FEB 18 2018

NOTE: "fair" indicates few or no clouds below 12,000 feet with no
significant weather and/or obstructions to visibility.

SCZ050-WAZ558-NCZ071-TXZ119-213-PAZ071-DCZ001-FLZ074-172-MI076-
NYZ176-178-MAZ016-IL014-TNZ027-NJZ106-GAZ044-MD014-181900-

...Gateway Observations for Charleston International...

CITY           SKY/WX    TMP DP  RH WIND       PRES   REMARKS
Chas Airport   CLOUDY    66  58  75 NE9       30.29S
6HR MIN TEMP:  61; 6HR MAX TEMP:  68;

Seattle        CLOUDY    37  30  75 NE5       29.67R WCI  33
6HR MIN TEMP:  33; 6HR MAX TEMP:  37; 6HR PCP: TRACE;

Charlotte      FAIR      60  36  40 E8        30.34F
6HR MIN TEMP:  42; 6HR MAX TEMP:  60;

Dallas DFW     CLOUDY    54  51  90 S10       30.10F FOG
6HR MIN TEMP:  48; 6HR MAX TEMP:  54; 6HR PCP: TRACE;

Dallas Love    CLOUDY    53  51  93 SE9       30.11F FOG
6HR MIN TEMP:  47; 6HR MAX TEMP:  53; 6HR PCP: TRACE;

Philladelphia  FAIR      44  26  49 NW16      30.39R
6HR MIN TEMP:  35; 6HR MAX TEMP:  44;

Wash National  FAIR      47  29  49 NW8G17    30.43S
6HR MIN TEMP:  33; 6HR MAX TEMP:  49;

Baltimore      PTSUNNY   44  31  60 W14G21    30.40F
6HR MIN TEMP:  31; 6HR MAX TEMP:  44;

Miami          FAIR      83  66  56 E15       30.21F
6HR MIN TEMP:  71; 6HR MAX TEMP:  84;

Detroit        CLOUDY    35  25  66 SW13      30.32S WCI  26
6HR MIN TEMP:  30; 6HR MAX TEMP:  36;

Newark         FAIR      43  25  49 W17       30.34R
6HR MIN TEMP:  34; 6HR MAX TEMP:  43;

Laguardia      FAIR      44  23  43 NW13      30.34R
6HR MIN TEMP:  36; 6HR MAX TEMP:  44;

J F K          FAIR      42  24  49 NW10      30.35R
6HR MIN TEMP:  35; 6HR MAX TEMP:  42;

Boston Logan   FAIR      40  26  57 NW15      30.20R WCI  32
6HR MIN TEMP:  32; 6HR MAX TEMP:  40; 6HR PCP: TRACE;

Ft. Lauderdale PTSUNNY   79  69  71 E14       30.20F
6HR MIN TEMP:  69; 6HR MAX TEMP:  80;

Chicago O`Hare PTSUNNY   30  24  78 S15       30.21F WCI  19
6HR MIN TEMP:  12; 6HR MAX TEMP:  30;

Chicago Midway PTSUNNY   31  25  78 S15G22    30.23F WCI  20
6HR MIN TEMP:  20; 6HR MAX TEMP:  31;

Houston Bush   PTSUNNY   71  65  81 S10       30.13F
6HR MIN TEMP:  59; 6HR MAX TEMP:  71;

Houston Hobby  PTSUNNY   72  68  87 SE7       30.12F
6HR MIN TEMP:  60; 6HR MAX TEMP:  72;

Nashville      FAIR      52  34  50 E8        30.27F
6HR MIN TEMP:  34; 6HR MAX TEMP:  53;

Atlanta        PTSUNNY   64  49  57 S7        30.26F
6HR MIN TEMP:  48; 6HR MAX TEMP:  65;


$$

GAZ044-118-TXZ119-213-NCZ071-DCZ001-MDZ014-506-PAZ021-071-NJZ106-
NYZ176-178-MAZ106-OHZ011-021-055-MIZ076-KYZ091-ILZ014-INZ047-
MNZ060-ONZ431-181900-

...Gateway Observations for Savannah International...

CITY           SKY/WX    TMP DP  RH WIND       PRES   REMARKS
Savannah Arpt  CLOUDY    70  62  76 N3        30.26F
6HR MIN TEMP:  59; 6HR MAX TEMP:  70;

Atlanta        PTSUNNY   64  49  57 S7        30.26F
6HR MIN TEMP:  48; 6HR MAX TEMP:  65;

Charlotte      FAIR      60  36  40 E8        30.34F
6HR MIN TEMP:  42; 6HR MAX TEMP:  60;

Dallas DFW     CLOUDY    54  51  90 S10       30.10F FOG
6HR MIN TEMP:  48; 6HR MAX TEMP:  54; 6HR PCP: TRACE;

Houston Bush   PTSUNNY   71  65  81 S10       30.13F
6HR MIN TEMP:  59; 6HR MAX TEMP:  71;

Wash National  FAIR      47  29  49 NW8G17    30.43S
6HR MIN TEMP:  33; 6HR MAX TEMP:  49;

Wash Dulles    PTSUNNY   47  31  53 W5        30.42S
6HR MIN TEMP:  31; 6HR MAX TEMP:  47;

Baltimore      PTSUNNY   44  31  60 W14G21    30.40F
6HR MIN TEMP:  31; 6HR MAX TEMP:  44;

Philadelphia   FAIR      44  26  49 NW16      30.39R
6HR MIN TEMP:  35; 6HR MAX TEMP:  44;

Newark         FAIR      43  25  49 W17       30.34R
6HR MIN TEMP:  34; 6HR MAX TEMP:  43;

Laguardia      FAIR      44  23  43 NW13      30.34R
6HR MIN TEMP:  36; 6HR MAX TEMP:  44;

J F K          FAIR      42  24  49 NW10      30.35R
6HR MIN TEMP:  35; 6HR MAX TEMP:  42;

Boston         FAIR      40  26  57 NW15      30.20R WCI  32
6HR MIN TEMP:  32; 6HR MAX TEMP:  40; 6HR PCP: TRACE;

Pittsburg      PTSUNNY   36  26  67 CALM      30.34F
6HR MIN TEMP:  33; 6HR MAX TEMP:  36;

Akron          PTSUNNY   39  26  59 S6        30.32F WCI  35
6HR MIN TEMP:  32; 6HR MAX TEMP:  39;

Cleveland      PTSUNNY   40  29  64 SW10      30.35F WCI  33
6HR MIN TEMP:  32; 6HR MAX TEMP:  40;

Cincinnati     PTSUNNY   41  32  70 E7        30.32F
6HR MIN TEMP:  32; 6HR MAX TEMP:  41;

Columbus       PTSUNNY   39  29  67 S8        30.37S WCI  33
Detroit        CLOUDY    35  25  66 SW13      30.32S WCI  26
6HR MIN TEMP:  30; 6HR MAX TEMP:  36;

Chicago O`Hare PTSUNNY   30  24  78 S15       30.21F WCI  19
6HR MIN TEMP:  12; 6HR MAX TEMP:  30;

Minneapolis    CLOUDY    35  27  72 S22G33    29.67F WCI  23
6HR MIN TEMP:  21; 6HR MAX TEMP:  35;

Indianapolis   PTSUNNY   39  30  70 SE12      30.29F WCI  32
6HR MIN TEMP:  29; 6HR MAX TEMP:  39;

Toronto Canada PTSUNNY   39  21  48 W10       30.29F WCI  32

$$




USA.gov is the U.S. government's official web portal to all federal, state and local government web resources and services.